CZ-3B DEB, 48542

Orbit data source: Space-Track

CZ-3B DEB, 48542 is space debris in HEO originally from a launch on Sat, 04 Sep 2010 UTC launched from the Xichang Space Center, China (XSC). Debris objects in space refer to the collection of defunct objects orbiting the Earth. Examples of debris include non-operational satellites, rocket bodies, and fragments generated from explosions, collisions, or faulty payload assembly.

Loading next visibility...
Identifier
48542, 2010-042AH
Orbit
HEO
Country
Flag of CNCN / PRC
Related business
Manufacturer
CALT
Mission
Spacecraft
Bus & Motor
Unknown
Mass
Unknown
Launch date (UTC)
2010-09-04 (15 years ago)
Launch vehicle
Unknown
Launch site
Xichang Space Center, China (XSC)
Object type
Payload
Rocket body
Debris
Shape & HBR
Unknown shape, 0.1 m
Radar Cross Section
Medium (>0.1 m² and <1 m²)

Expand to show TLE details & history
Last TLE update: 10 months ago

TLE from 10 months ago
0 CZ-3B DEB
1 48542U 10042AH  25001.96073048  .00002706  00000-0  14890-1 0  9993
2 48542  22.5672  16.3859 7371962 215.3059  60.2254  2.07196923 94530
Epoch: 2025-01-01T23:03Z
TLE epoch observation values (Epoch: 2025-01-01T23:03:27.113Z)
Latitude
-0.00014°
Longitude
-71.3012°
Altitude
23,383.338 km
Speed
3.384 km/s
True Right ascension
01h 05m 37s
True Declination
0° 00' 01"
Sunlit
Object was in daylight at epoch
Visualization orbit readout
Latitude
Unknown
Longitude
Unknown
Altitude
Unknown
Speed
Unknown
Apparent Right ascension
Unknown
Apparent Declination
Unknown
Sunlit
N/A
Visualization observer readout
Local Sidereal Time
02:59:51
Azimuth
Unknown
Elevation
Unknown
Doppler factor
Unknown
Orbital elements
Apogee altitude
38,779.751 km
Perigee altitude
453.368 km
Semi-major axis
25,994.697 km
Eccentricity
0.7372
Inclination
22.5672°
RAAN
16.3859°
Arg. of periapsis
215.3059°
True anomaly
144.80053°
Mean anomaly
60.2254°
Eccentric anomaly
101.60081°
Mean motion
0.51786 °/min
Orbital period
695.16 mins
BSTAR
0.01489
Loading maneuver chart data...
Computing Atmospheric mass density...
Loading historical data...
Loading historical data...
Loading historical data...
Loading historical data...
Loading historical data...
Loading historical data...
Loading historical data...

Documentation

Showing up to 5 results
|